Wilson Lake Weather Center

Moon Phase Calendar



Wilson Lake Water Level
Online Cameras

 


      

Current Conditions in Killen
5/22/2024 12:37:15 PM

84°F
Feels Like 87
Clouds
Humidity
58%
Pressure
30"
Wind
9.2 mph (SW)
Dew Point
68°F
UV Index
10/10 (Very High)
Visibility
6 mi

Hourly Forecast

Date & Time Wed, May 22
12:00 PM
Wed, May 22
1:00 PM
Wed, May 22
2:00 PM
Wed, May 22
3:00 PM
Wed, May 22
4:00 PM
Wed, May 22
5:00 PM
Wed, May 22
6:00 PM
Wed, May 22
7:00 PM
Wed, May 22
8:00 PM
Wed, May 22
9:00 PM
Wed, May 22
10:00 PM
Wed, May 22
11:00 PM
Thu, May 23
12:00 AM
Thu, May 23
1:00 AM
Thu, May 23
2:00 AM
Thu, May 23
3:00 AM
Thu, May 23
4:00 AM
Thu, May 23
5:00 AM
Thu, May 23
6:00 AM
Thu, May 23
7:00 AM
Thu, May 23
8:00 AM
Thu, May 23
9:00 AM
Thu, May 23
10:00 AM
Thu, May 23
11:00 AM
Thu, May 23
12:00 PM
Thu, May 23
1:00 PM
Thu, May 23
2:00 PM
Thu, May 23
3:00 PM
Thu, May 23
4:00 PM
Thu, May 23
5:00 PM
Thu, May 23
6:00 PM
Thu, May 23
7:00 PM
Thu, May 23
8:00 PM
Thu, May 23
9:00 PM
Thu, May 23
10:00 PM
Thu, May 23
11:00 PM
Fri, May 24
12:00 AM
Fri, May 24
1:00 AM
Fri, May 24
2:00 AM
Fri, May 24
3:00 AM
Fri, May 24
4:00 AM
Fri, May 24
5:00 AM
Fri, May 24
6:00 AM
Fri, May 24
7:00 AM
Fri, May 24
8:00 AM
Fri, May 24
9:00 AM
Fri, May 24
10:00 AM
Fri, May 24
11:00 AM
Condition
Clouds

Clouds

Clouds

Clouds

Clouds

Clouds

Rain

Clouds

Clouds

Clouds

Clouds

Clouds

Clouds

Clouds

Rain

Clouds

Clouds

Rain

Rain

Clouds

Clouds

Clouds

Clouds

Clouds

Clouds

Clouds

Clouds

Clouds

Clouds

Clouds

Clouds

Clouds

Clouds

Clouds

Rain

Rain

Clouds

Rain

Rain

Rain

Rain

Clouds

Clouds

Clouds

Clouds

Clouds

Rain

Rain
Temperature 83°F84°F84°F85°F85°F85°F82°F79°F76°F74°F73°F72°F71°F71°F70°F70°F69°F68°F68°F67°F67°F68°F71°F75°F74°F75°F78°F81°F82°F82°F82°F78°F74°F73°F71°F69°F70°F70°F68°F68°F67°F66°F67°F68°F68°F68°F68°F71°F
Feels Like 87°F87°F87°F88°F89°F90°F87°F79°F77°F74°F74°F73°F72°F71°F70°F70°F70°F68°F69°F68°F68°F69°F72°F75°F75°F75°F79°F83°F85°F85°F85°F79°F75°F74°F71°F70°F71°F71°F69°F69°F68°F67°F67°F69°F69°F68°F69°F72°F
Cloudiness 80%75%75%80%79%84%89%91%100%100%100%100%100%100%100%100%100%100%100%100%100%100%100%100%100%100%94%51%37%44%37%32%20%60%73%80%84%87%100%100%100%100%100%100%100%100%99%95%
Visibility 6 mi6 mi6 mi6 mi6 mi6 mi6 mi6 mi6 mi6 mi6 mi6 mi6 mi6 mi6 mi6 mi6 mi6 mi6 mi6 mi6 mi6 mi6 mi6 mi6 mi6 mi6 mi6 mi6 mi6 mi6 mi6 mi6 mi6 mi6 mi6 mi6 mi6 mi6 mi6 mi6 mi6 mi6 mi6 mi6 mi6 mi6 mi6 mi
Precipitation 0%0%0%0%0%0%37%18%0%0%16%14%12%9%44%45%27%100%100%80%0%0%0%0%0%0%0%0%0%0%0%0%0%1%64%63%57%65%100%100%100%80%80%80%0%0%26%22%
Humidity 60%58%57%56%57%62%72%75%76%75%74%78%81%83%83%82%82%93%93%91%88%86%78%72%74%73%66%60%58%63%68%74%75%77%83%87%86%87%94%93%96%97%97%95%94%94%92%86%
Dew Point 68°F68°F67°F67°F68°F70°F72°F71°F68°F65°F64°F65°F65°F65°F64°F64°F64°F65°F65°F64°F64°F63°F64°F65°F65°F66°F66°F66°F66°F68°F70°F69°F66°F65°F65°F65°F65°F66°F66°F66°F65°F65°F65°F66°F66°F66°F66°F66°F
Pressure 30"30"30"29.97"29.94"29.91"29.88"29.88"29.88"29.91"29.91"29.91"29.91"29.94"29.91"29.91"29.91"29.94"29.94"29.97"29.94"29.97"29.97"29.97"29.97"29.97"29.94"29.94"29.91"29.88"29.88"29.88"29.88"29.85"29.88"29.88"29.85"29.88"29.88"29.88"29.88"29.85"29.85"29.85"29.85"29.88"29.91"29.91"
Wind Speed 10 mph9.7 mph9.6 mph10 mph8.8 mph7.6 mph5.5 mph4.8 mph6.3 mph4.4 mph1.3 mph6.2 mph2 mph3.6 mph6.4 mph4.1 mph6.4 mph6.3 mph7.7 mph6.3 mph4.1 mph2.7 mph5.4 mph6.1 mph4 mph3.8 mph3.6 mph4 mph4.5 mph4.9 mph4.1 mph4.2 mph4 mph4.1 mph4.5 mph2.7 mph1.2 mph6.6 mph8.5 mph11.2 mph6.3 mph0.9 mph1.3 mph0.2 mph3.4 mph4.3 mph2.7 mph4.3 mph
Wind
Direction
201°
SSW
200°
SSW
202°
SSW
207°
SSW
210°
SSW
224°
SW
228°
SW
239°
WSW
241°
WSW
238°
WSW
48°
NE
113°
ESE
85°
E
133°
SE
154°
SSE
173°
S
191°
S
243°
WSW
264°
W
282°
WNW
299°
WNW
259°
W
232°
SW
210°
SSW
218°
SW
289°
WNW
304°
NW
265°
W
231°
SW
203°
SSW
161°
SSE
133°
SE
135°
SE
149°
SSE
159°
SSE
180°
S
160°
SSE
187°
S
211°
SSW
222°
SW
212°
SSW
184°
S
184°
S
281°
W
155°
SSE
154°
SSE
194°
SSW
193°
SSW

Daily Forecast

Date High Low Precip. Humidity
Today
May 22

Rain
85 °F
66 °F
37%
60%
Thursday
May 23

Rain
82 °F
67 °F
100%
74%
Friday
May 24

Rain
80 °F
66 °F
100%
82%
Saturday
May 25

Rain
85 °F
69 °F
100%
65%
Sunday
May 26

Rain
88 °F
68 °F
100%
57%
Monday
May 27

Rain
78 °F
65 °F
100%
91%
Tuesday
May 28

Clear
76 °F
55 °F
0%
56%
Wednesday
May 29

Clouds
77 °F
58 °F
0%
61%
Thursday
May 30

Clear
74 °F
52 °F
0%
49%
Friday
May 31

Clear
83 °F
54 °F
0%
45%
Saturday
Jun 1

Clouds
89 °F
62 °F
0%
50%
Sunday
Jun 2

Clouds
87 °F
70 °F
0%
53%
Monday
Jun 3

Rain
78 °F
68 °F
100%
92%
Tuesday
Jun 4

Rain
74 °F
55 °F
49%
55%
Wednesday
Jun 5

Rain
68 °F
50 °F
100%
61%
Thursday
Jun 6

Rain
69 °F
53 °F
65%
63%

Temperature 8-14 Day Outlook



Precipitation 8-14 Day Outlook




Quick Links
Wilson Lake News
Wilson Lake Photos
Wilson Lake Videos




About Us
Contact Us
Site Map
Search Site
Advertise With Us
   
www.WilsonLake.info
THE WILSON LAKE WEBSITE

Copyright 2024, Lakes Online
Privacy    |    Legal